[[{"header":{"parameterUnit":"m.s-1","parameterCategory":1,"la1":30.2991,"la2":30.254,"lo1":-89.0895,"lo2":-89.0444,"dy":0.0017,"dx":0.0017,"nx":28,"ny":28,"refTime":"2024-12-23T03:00:00:Z","depth":0,"parameterNumber":2,"parameterNumberName":"U-component_of_WINDS"},"data":[0,0,0,0,0,0,0,0,0,0,0,0,0,0,0,0,0,0,0,0,0,0,0,0,0,0,0,0,0,0,0,0,0,0,0,0,0,0,0,0,0,0,0,0,0,0,0,0,0,0,0,0,0,0,0,0,0,0,-3.8413,-3.8413,0,-3.8407,-3.8407,-3.8407,-3.8248,-3.8244,-3.824,-3.8236,-3.8233,-3.8237,-3.8241,0,0,0,0,0,0,0,0,0,0,0,0,0,-3.829,-3.8293,-3.8413,-3.8413,-3.8413,-3.8407,-3.8407,-3.8407,-3.8249,-3.8244,-3.8239,-3.8234,-3.8232,-3.8236,-3.8241,0,0,0,0,0,0,0,0,0,0,0,0,0,-3.832,-3.8294,-3.8413,-3.8334,-3.8326,-3.8407,-3.8407,-3.8407,-3.825,-3.8244,-3.8238,-3.8232,-3.8231,-3.8236,-3.8242,-3.8399,0,0,-3.8259,-3.8261,0,0,0,0,0,0,0,0,-3.8318,-3.8325,-3.8345,-3.8339,-3.8331,-3.8322,-3.8362,-3.8405,-3.8252,-3.8279,-3.8236,-3.8229,-3.8268,-3.827,-3.8283,-3.8399,-3.8399,-3.8259,-3.8263,-3.8265,-3.8267,0,0,0,0,0,0,0,-3.8316,-3.8324,-3.8411,-3.8346,-3.8337,-3.8299,-3.8296,-3.837,-3.8308,-3.8276,-3.8265,-3.8266,-3.8263,-3.8278,-3.8281,-3.8399,-3.8259,-3.8264,-3.8268,-3.827,-3.8644,-3.865,0,0,0,0,0,0,-3.8325,-3.8323,-3.8411,-3.8411,-3.8309,-3.8306,-3.8303,-3.8331,-3.8307,-3.8297,-3.8271,-3.8259,-3.8271,-3.8275,-3.8281,-3.8464,-3.8265,-3.827,-3.8273,-3.8637,-3.8645,-3.8653,0,0,0,0,0,0,-3.8323,-3.8334,-3.8411,-3.8364,-3.8371,-3.8314,-3.8348,-3.8335,-3.8349,-3.8303,-3.8292,-3.8298,-3.8266,-3.8273,-3.8371,-3.8461,-3.8273,-3.8278,-3.863,-3.864,-3.8649,-3.8831,0,0,0,0,0,0,-3.832,-3.8335,-3.8394,-3.8366,-3.8374,-3.8502,-3.8353,-3.8339,-3.8359,-3.8342,-3.8325,-3.8316,-3.8262,-3.8363,-3.8376,-3.8466,-3.8282,-3.8621,-3.8634,-3.8646,-3.8817,-3.8846,-3.8871,0,0,0,0,0,-3.8316,-3.8446,-3.8398,-3.8409,-3.8446,-3.8507,-3.8511,-3.8446,-3.8367,-3.8426,-3.8396,-3.8316,-3.8449,-3.8375,-3.8388,-3.8481,-3.8615,-3.8631,-3.8645,-3.8805,-3.8841,-3.8871,0,0,0,0,0,0,-3.8487,-3.8441,-3.8387,-3.8512,-3.8514,-3.848,-3.8553,-3.8486,-3.8512,-3.8496,-3.8414,-3.8411,-3.8522,-3.851,-3.8428,-3.8631,-3.8518,-3.8536,-3.8635,-3.8669,-3.8695,-3.8696,-3.8287,0,0,0,0,0,-3.8539,-3.8592,-3.8549,-3.8663,-3.8667,-3.861,-3.8634,-3.8583,-3.8583,-3.8584,-3.8561,-3.8565,-3.8607,-3.8637,-3.8673,-3.8814,-3.8808,-3.8884,-3.8911,-3.8934,-3.8951,-3.9024,-3.9058,-3.8701,-3.8701,-3.8701,0,0,-3.8648,-3.8629,-3.8668,-3.8697,-3.8693,-3.875,-3.8612,-3.8678,-3.872,-3.8594,-3.8685,-3.8669,-3.8667,-3.8787,-3.8839,-3.8781,-3.9048,-3.8953,-3.8971,-3.8976,-3.9043,-3.9077,-3.9107,-3.8711,-3.8709,-3.8708,0,0,-3.8875,-3.8866,-3.896,-3.8958,-3.8953,-3.8914,-3.8937,-3.8913,-3.8897,-3.8986,-3.8893,-3.8941,-3.9016,-3.9018,-3.903,-3.9256,-3.9184,-3.927,-3.9413,-3.9485,-3.9513,-3.9538,-3.9619,-3.9649,-3.9287,-3.9288,-3.9288,0,-3.9011,-3.9092,-3.9017,-3.9089,-3.9104,-3.8991,-3.9086,-3.9089,-3.9097,-3.9111,-3.9045,-3.9136,-3.9127,-3.9246,-3.9301,-3.9314,-3.9337,-3.9273,-3.9515,-3.9539,-3.9561,-3.9637,-3.9668,-3.9298,-3.9297,-3.9296,-3.9295,0,-3.9259,-3.9317,-3.9393,-3.9402,-3.9426,-3.951,-3.9448,-3.9481,-3.9428,-3.9396,-3.9489,-3.9474,-3.9505,-3.9529,-3.9478,-3.9641,-3.9605,-3.9529,-3.9414,-3.9606,-3.9677,-3.9706,-3.9313,-3.9309,-3.9306,-3.9304,0,0,-3.9596,-3.9561,-3.959,-3.9593,-3.9578,-3.9622,-3.9699,-3.9728,-3.9759,-3.9768,-3.9832,-3.9897,-3.9825,-3.9838,-3.9786,-3.985,-4.0031,-3.9765,-3.9764,-3.9816,-4.021,-4.0268,-4.0303,-3.9982,-3.9987,-3.9991,-4.021,0,-3.9815,-3.9945,-3.988,-4.0019,-4.0071,-3.9963,-4.0031,-4.003,-4.0002,-4.0043,-4.0011,-4.0059,-3.9961,-3.9968,-4.0026,-3.9997,-4.0109,-3.998,-4.0042,-4.0045,-4.0046,-4.034,-4.0402,-4.0609,-4.0237,-4.0242,-4.0245,0,-4.009,-4.0109,-4.0253,-4.0227,-4.0247,-4.0309,-4.033,-4.037,-4.0366,-4.0341,-4.0355,-4.0288,-4.0363,-4.0248,-4.035,-4.0264,-4.0285,-4.0274,-4.028,-4.0285,-4.0158,-4.0354,-4.0674,-4.0706,-4.0288,-4.0284,-4.0281,0,-4.0322,-4.0383,-4.0477,-4.0482,-4.0455,-4.0501,-4.0492,-4.0482,-4.0504,-4.0522,-4.0535,-4.0563,-4.0579,-4.0602,-4.0544,-4.0465,-4.0655,-4.0535,-4.0637,-4.0639,-4.0683,-4.0682,-4.1013,-4.0696,-4.0695,-4.0694,-4.0694,0,-4.0574,-4.0667,-4.058,-4.0639,-4.0739,-4.0662,-4.0763,-4.0743,-4.0735,-4.0787,-4.0696,-4.0748,-4.0667,-4.0711,-4.0666,-4.0758,-4.0766,-4.0748,-4.0736,-4.0757,-4.076,-4.0771,-4.0756,-4.0703,-4.0701,-4.0699,-4.0698,0,-4.0852,-4.0797,-4.0892,-4.0858,-4.0851,-4.0927,-4.0898,-4.095,-4.0915,-4.0983,-4.0994,-4.094,-4.0986,-4.093,-4.0972,-4.0942,-4.1067,-4.1032,-4.1069,-4.1059,-4.1165,-4.1156,-4.1516,-4.156,-4.1214,-4.1217,-4.122,0,-4.1017,-4.1086,-4.1058,-4.1086,-4.1082,-4.1128,-4.1149,-4.1076,-4.1101,-4.1102,-4.1155,-4.1193,-4.122,-4.1299,-4.1264,-4.1296,-4.1262,-4.1385,-4.1266,-4.1285,-4.1265,-4.1262,-4.1268,-4.1411,-4.1415,-4.1418,-4.1421,0,-4.1318,-4.1287,-4.1319,-4.1344,-4.137,-4.1386,-4.1395,-4.1423,-4.1346,-4.138,-4.1425,-4.1446,-4.1488,-4.1528,-4.1549,-4.154,-4.1469,-4.1458,-4.1484,-4.1508,-4.1526,-4.1518,-4.1136,-4.1451,-4.1448,-4.1446,-4.1444,-4.1443,-4.1544,-4.16,-4.1589,-4.1628,-4.1627,-4.1637,-4.1684,-4.1654,-4.169,-4.1718,-4.1672,-4.173,-4.1723,-4.1745,-4.1744,-4.1788,-4.1735,-4.1772,-4.1782,-4.1793,-4.1809,-4.1518,-4.1792,-4.1791,-4.179,-4.1789,-4.1789,0,-4.184,-4.1827,-4.1864,-4.1879,-4.191,-4.1837,-4.1843,-4.1874,-4.1926,-4.1925,-4.1953,-4.2005,-4.2043,-4.201,-4.2041,-4.2083,-4.2051,-4.2094,-4.2091,-4.209,-4.1854,-4.1829,-4.2119,-4.2119,-4.2119,-4.2119,-4.2119,-4.2119,-4.1998,-4.2088,-4.2056,-4.2144,-4.213,-4.2185,-4.2195,-4.2203,-4.2202,-4.2265,-4.2295,-4.2272,-4.2259,-4.2288,-4.2319,-4.2308,-4.2325,-4.238,-4.2358,-4.2139,-4.2107,-4.2076,-4.2052,-4.2384,-4.2384,-4.259,-4.2592,-4.2593]},{"header":{"parameterUnit":"m.s-1","parameterCategory":1,"la1":30.2991,"la2":30.254,"lo1":-89.0895,"lo2":-89.0444,"dy":0.0017,"dx":0.0017,"nx":28,"ny":28,"refTime":"2024-12-23T03:00:00:Z","depth":0,"parameterNumber":3,"parameterNumberName":"V-component_of_WINDS"},"data":[0,0,0,0,0,0,0,0,0,0,0,0,0,0,0,0,0,0,0,0,0,0,0,0,0,0,0,0,0,0,0,0,0,0,0,0,0,0,0,0,0,0,0,0,0,0,0,0,0,0,0,0,0,0,0,0,0,0,-0.7332,-0.7333,0,-0.7455,-0.7457,-0.7458,-0.7491,-0.749,-0.7489,-0.7489,-0.7619,-0.7623,-0.7627,0,0,0,0,0,0,0,0,0,0,0,0,0,-0.7127,-0.713,-0.7332,-0.7333,-0.7335,-0.7455,-0.7457,-0.7458,-0.7491,-0.749,-0.7489,-0.7488,-0.7618,-0.7623,-0.7628,0,0,0,0,0,0,0,0,0,0,0,0,0,-0.723,-0.7132,-0.7331,-0.7365,-0.737,-0.7455,-0.7457,-0.7459,-0.7491,-0.749,-0.7489,-0.7488,-0.7616,-0.7622,-0.7628,-0.7689,0,0,-0.7647,-0.765,0,0,0,0,0,0,0,0,-0.7224,-0.7237,-0.7359,-0.7363,-0.7368,-0.7456,-0.7432,-0.7536,-0.7492,-0.7445,-0.7489,-0.7487,-0.7566,-0.7576,-0.7602,-0.7695,-0.7701,-0.7648,-0.7652,-0.7654,-0.7656,0,0,0,0,0,0,0,-0.7217,-0.7232,-0.7381,-0.7361,-0.7366,-0.7375,-0.7389,-0.7452,-0.7511,-0.7449,-0.7452,-0.7466,-0.7569,-0.7596,-0.7606,-0.7703,-0.7648,-0.7653,-0.7657,-0.766,-0.7852,-0.7853,0,0,0,0,0,0,-0.7203,-0.7226,-0.7377,-0.7384,-0.7292,-0.738,-0.7395,-0.7429,-0.751,-0.7521,-0.7467,-0.7467,-0.7586,-0.7598,-0.761,-0.7687,-0.7654,-0.766,-0.7664,-0.7851,-0.7852,-0.7854,0,0,0,0,0,0,-0.7199,-0.7216,-0.7372,-0.7306,-0.7326,-0.7385,-0.7423,-0.7432,-0.746,-0.7523,-0.7534,-0.7484,-0.7586,-0.7601,-0.7669,-0.7692,-0.7663,-0.7669,-0.7849,-0.7851,-0.7853,-0.784,0,0,0,0,0,0,-0.7193,-0.7214,-0.7238,-0.7306,-0.733,-0.7428,-0.7424,-0.7436,-0.747,-0.7472,-0.7542,-0.7553,-0.7586,-0.766,-0.7675,-0.77,-0.7674,-0.7847,-0.785,-0.7853,-0.7839,-0.7842,-0.7844,0,0,0,0,0,-0.7185,-0.723,-0.7239,-0.7257,-0.736,-0.7429,-0.7443,-0.7479,-0.7472,-0.7496,-0.7537,-0.7551,-0.7686,-0.7666,-0.7684,-0.7711,-0.7846,-0.7849,-0.7852,-0.7838,-0.7841,-0.7844,0,0,0,0,0,0,-0.7165,-0.724,-0.725,-0.7318,-0.7367,-0.7434,-0.7466,-0.7481,-0.7533,-0.7533,-0.7576,-0.7592,-0.7657,-0.7691,-0.7667,-0.7774,-0.7767,-0.7773,-0.775,-0.7753,-0.7756,-0.7746,-0.7679,0,0,0,0,0,-0.7168,-0.7216,-0.728,-0.7334,-0.7358,-0.7407,-0.7439,-0.7462,-0.7515,-0.7536,-0.7581,-0.7633,-0.7687,-0.7722,-0.7775,-0.7844,-0.786,-0.7871,-0.7874,-0.7875,-0.7881,-0.792,-0.7925,-0.7864,-0.7864,-0.7864,0,0,-0.7175,-0.7222,-0.7251,-0.7331,-0.7371,-0.7422,-0.7425,-0.7478,-0.7516,-0.7544,-0.7611,-0.7646,-0.7706,-0.7774,-0.7806,-0.7804,-0.7901,-0.7879,-0.788,-0.7885,-0.7923,-0.7929,-0.7934,-0.7866,-0.7866,-0.7865,0,0,-0.7215,-0.7255,-0.7304,-0.7344,-0.7404,-0.7437,-0.7448,-0.7514,-0.7537,-0.7604,-0.7626,-0.7673,-0.7765,-0.7807,-0.784,-0.7894,-0.7909,-0.791,-0.7924,-0.7961,-0.7965,-0.797,-0.7989,-0.7996,-0.7915,-0.7915,-0.7915,0,-0.7217,-0.7293,-0.7328,-0.738,-0.7415,-0.7441,-0.7491,-0.7529,-0.7604,-0.7628,-0.7624,-0.774,-0.7782,-0.786,-0.7873,-0.7899,-0.7914,-0.7903,-0.7962,-0.7967,-0.7971,-0.799,-0.7997,-0.7915,-0.7915,-0.7915,-0.7915,0,-0.7292,-0.7344,-0.7377,-0.7447,-0.7485,-0.7536,-0.758,-0.7615,-0.7634,-0.7668,-0.7735,-0.7787,-0.7851,-0.7871,-0.7891,-0.7952,-0.7949,-0.7953,-0.7946,-0.7976,-0.7995,-0.8002,-0.7915,-0.7915,-0.7915,-0.7915,0,0,-0.7324,-0.7411,-0.7423,-0.7454,-0.7522,-0.7564,-0.7616,-0.7677,-0.7706,-0.7757,-0.7802,-0.7879,-0.7882,-0.792,-0.7945,-0.7978,-0.8017,-0.7978,-0.798,-0.7984,-0.8087,-0.8084,-0.8092,-0.8027,-0.8028,-0.803,-0.8082,0,-0.7372,-0.7464,-0.7497,-0.7574,-0.7623,-0.7647,-0.7693,-0.774,-0.7772,-0.7818,-0.7855,-0.7908,-0.7909,-0.7932,-0.7965,-0.8005,-0.8038,-0.8002,-0.807,-0.8072,-0.8055,-0.8101,-0.8099,-0.8146,-0.809,-0.8091,-0.8092,0,-0.744,-0.749,-0.7571,-0.7632,-0.7654,-0.7694,-0.7752,-0.7796,-0.785,-0.7871,-0.7912,-0.7935,-0.7991,-0.798,-0.8058,-0.8032,-0.8062,-0.8086,-0.8089,-0.8097,-0.8084,-0.8112,-0.8162,-0.8169,-0.8104,-0.8103,-0.8102,0,-0.7455,-0.7542,-0.7602,-0.7628,-0.7701,-0.7728,-0.776,-0.7813,-0.7847,-0.7898,-0.7921,-0.7979,-0.801,-0.8055,-0.8092,-0.8081,-0.8167,-0.816,-0.8187,-0.8186,-0.8205,-0.8204,-0.8261,-0.8223,-0.8223,-0.8223,-0.8223,0,-0.7506,-0.7554,-0.7609,-0.7646,-0.7702,-0.7739,-0.7793,-0.7827,-0.7873,-0.7917,-0.7942,-0.7984,-0.8031,-0.8078,-0.8108,-0.8169,-0.8183,-0.8202,-0.821,-0.82,-0.8198,-0.8221,-0.8219,-0.8225,-0.8225,-0.8224,-0.8224,0,-0.7532,-0.757,-0.7637,-0.7699,-0.7716,-0.7754,-0.7808,-0.7845,-0.7878,-0.7933,-0.7949,-0.8,-0.8058,-0.8099,-0.8174,-0.8194,-0.8259,-0.8266,-0.824,-0.8244,-0.8269,-0.8266,-0.8344,-0.8357,-0.831,-0.831,-0.8311,0,-0.7562,-0.7599,-0.7665,-0.7696,-0.7727,-0.7776,-0.7811,-0.7849,-0.7884,-0.7948,-0.7977,-0.8036,-0.8085,-0.8175,-0.822,-0.8277,-0.8286,-0.831,-0.8295,-0.8284,-0.8287,-0.8285,-0.8289,-0.8312,-0.8312,-0.8313,-0.8313,0,-0.7611,-0.7627,-0.7676,-0.773,-0.7771,-0.7816,-0.7862,-0.7886,-0.7932,-0.7971,-0.8029,-0.8066,-0.8142,-0.82,-0.8261,-0.8295,-0.8312,-0.8317,-0.8326,-0.8317,-0.8301,-0.831,-0.8246,-0.8315,-0.8315,-0.8315,-0.8315,-0.8315,-0.764,-0.7674,-0.7726,-0.7778,-0.7816,-0.7858,-0.7896,-0.7932,-0.7981,-0.8044,-0.8064,-0.8124,-0.8176,-0.826,-0.8294,-0.8343,-0.8342,-0.8356,-0.8359,-0.8362,-0.8362,-0.8292,-0.8354,-0.8354,-0.8354,-0.8354,-0.8354,0,-0.769,-0.7724,-0.7772,-0.7834,-0.7876,-0.7886,-0.7938,-0.7972,-0.8024,-0.8071,-0.8118,-0.8184,-0.8241,-0.8289,-0.8348,-0.8377,-0.8386,-0.8391,-0.839,-0.8397,-0.8359,-0.8345,-0.8383,-0.8383,-0.8383,-0.8383,-0.8383,-0.8383,-0.7721,-0.778,-0.7803,-0.7881,-0.7915,-0.7973,-0.8001,-0.804,-0.8077,-0.815,-0.8196,-0.8227,-0.8275,-0.8337,-0.8389,-0.8402,-0.8422,-0.8425,-0.844,-0.8404,-0.84,-0.8397,-0.8384,-0.8429,-0.843,-0.8475,-0.8475,-0.8476]}]]